SCP
0 -0 -0 0 0 0 0 0 0 0 0 0 0 0 0 0 0 0 0 0 0 0 0 0 0 0 0 0 0 0 0 0 0 0 0 0 0 0 0 0 0 0 0 0
0 -0 0 0 0 0 0 0 0 0 0 0 0 0 0 0 0 0 -0 0 0 0 0 0 0 0 0 0 0 0 0 0 0 0 0 0 0 0 0 0 0 0 0 0
0 0 0 0 0 0 0 0 0 0 0 0 0 0 0 0 0 0 0 0 -0 0 0 0 0 0 0 0 0 0 0 0 0 0 0 0 -0 0 0 0 0 0 0 0
0 0 0 0 0 0 0 0 0 0 0 0 0 0 0 0 0 0 0 -0 0 -0 -0 0 0 0 0 0 0 0 0 0 0 0 0 -0 0 0 0 0 0 0 0 0
0 0 0 0 0 0 0 0 0 0 0 0 0 0 0 0 0 0 0 -0 -0 -0 -0 -0 0 0 0 0 0 0 0 0 0 0 0 0 0 0 0 0 0 0 0 0
0 0 0 0 0 0 0 0 0 0 0 0 0 0 0 0 0 0 0 0 0 0 0 0 0 0 0 0 0 0 0 0 0 0 0 0 0 0 0 0 0 0 0 0
0 0 0 0 0 0 0 0 0 0 0 0 0 0 0 0 0 0 0 0 0 0 -0 -0 -0 -0 0 0 0 0 0 0 0 0 -0 -0 -0 -0 0 0 0 0 0 0
0 0 0 0 0 0 0 0 0 0 0 0 0 0 0 0 0 0 0 0 0 -0 -0 -0 0 0 0 -0 0 0 0 0 0 -0 -0 -0 -0 0 0 0 0 0 0 0
0 0 0 0 0 0 0 0 0 0 0 0 0 0 0 0 0 0 0 0 0 -0 -0 -0 -0 -0 -0 -0 -0 -0 -0 0 -0 0 0 -0 -0 -0 -0 -0 0 0 0 0
0 0 0 0 0 0 0 0 0 0 0 0 0 0 0 0 0 0 0 0 0 0 -0 -0 -0 -0 -0 -0 -0 0 0 0 0 0 -0 -0 -0 -0 -0 0 0 0 0 0
0 0 0 0 0 0 0 0 0 0 0 0 0 0 0 0 0 0 0 0 0 0 0 0 0 0 0 0 0 -0 0 0 0 0 0 0 0 -0 -0 0 -0 0 0 0
0 0 0 0 0 0 0 0 0 0 0 0 0 0 0 0 0 0 0 0 0 0 0 0 0 0 -0 -0 -0 0 0 0 0 0 0 0 0 0 0 0 0 0 0 -0
0 0 0 0 0 0 0 0 0 0 0 0 0 0 0 0 0 0 0 0 0 0 0 0 0 0 0 -0 0 0 0 0 0 0 0 0 0 0 0 0 0 0 -0 -0
0 0 0 0 0 0 0 0 0 0 0 0 0 0 0 0 0 0 0 0 0 0 0 0 0 0 0 0 0 0 0 0 0 0 0 0 0 0 0 0 0 0 -0 -0
0 0 0 0 0 0 0 0 0 0 0 0 0 0 0 0 0 0 0 0 0 0 0 0 0 0 0 0 0 0 0 0 0 0 0 0 0 0 0 0 0 0 0 -0
0 0 0 0 0 0 0 0 0 0 0 0 0 0 0 0 0 0 0 0 0 0 0 0 0 0 0 0 0 0 0 0 0 0 0 0 0 0 0 0 0 0 0 0
0 0 0 0 0 0 0 0 0 0 0 0 0 0 0 0 0 0 0 0 0 0 0 0 0 0 0 0 0 0 0 0 0 0 0 0 0 0 0 0 0 0 0 0
0 0 0 0 0 0 0 0 0 0 0 0 0 0 0 0 0 0 0 -0 -0 0 0 0 0 0 0 0 0 0 0 0 0 0 0 0 0 0 0 0 0 0 0 0
0 0 0 0 0 0 0 0 0 0 0 -0 0 0 0 0 -0 -0 -0 -0 -0 0 0 0 0 0 0 0 0 0 0 0 0 0 0 0 0 0 0 0 0 0 0 0
0 0 0 0 0 0 0 0 0 0 0 0 0 0 -0 -0 -0 -0 -0 -0 0 0 0 0 0 0 0 0 0 0 0 0 0 0 0 0 0 0 0 0 0 0 0 0
0 0 0 0 0 0 0 0 0 0 0 0 -0 -0 -0 -0 -0 -0 -0 -0 0 0 0 0 0 0 0 0 0 0 0 0 0 0 0 0 0 0 0 0 0 0 0 0
0 0 0 0 0 0 0 0 0 0 0 -0 -0 -0 -0 -0 -0 -0 0 0 0 0 0 0 0 0 0 0 0 0 0 0 0 0 0 0 0 0 0 0 0 0 0 0
0 0 0 0 0 0 0 0 0 0 0 -0 -0 0 0 0 0 0 0 0 0 0 0 0 0 0 0 0 0 0 0 0 0 0 0 0 0 0 0 0 0 0 0 0
0 0 0 0 0 0 0 0 0 0 0 0 0 0 0 0 0 0 0 0 0 0 0 0 0 0 0 0 0 0 0 0 0 0 0 0 0 0 0 0 0 0 0 0
0 0 0 0 0 0 0 0 0 0 0 0 0 0 0 0 0 0 0 0 0 0 0 0 0 0 0 0 0 0 0 0 0 0 0 0 0 0 0 0 0 0 0 0
0 0 0 0 0 0 0 0 0 0 0 0 0 0 0 0 0 0 0 0 0 0 0 0 0 0 0 0 0 0 0 0 0 0 0 0 0 0 0 0 0 0 0 0
Wind_Speed_500mb
14 6 8 11 10 6 7 11 30 32 28 16 24 47 55 64 54 47 55 57 64 60 44 34 30 33 34 33 35 39 43 41 42 44 46 47 49 53 58 59 55 57 57 60
8 7 5 3 6 9 10 18 24 20 5 14 31 53 45 29 25 45 53 45 59 56 46 34 33 35 33 33 33 35 36 36 36 40 42 48 53 54 57 60 61 56 56 56
7 5 7 5 7 10 9 13 10 16 21 10 29 19 13 11 15 17 42 57 53 47 38 39 39 33 31 31 29 28 28 29 35 38 42 44 49 53 51 46 56 60 61 59
9 6 3 3 9 6 9 8 11 16 20 12 15 13 14 15 25 8 23 26 46 46 46 41 38 34 30 26 26 26 28 32 32 37 42 46 48 53 50 46 46 52 57 59
6 2 3 5 7 7 17 10 17 7 5 7 5 5 18 10 15 18 15 22 18 21 27 28 26 24 25 24 25 27 27 27 29 37 42 47 48 49 51 47 48 42 39 43
11 7 4 7 7 7 16 12 6 4 2 1 5 2 13 8 8 15 10 28 14 4 9 11 16 20 21 23 25 26 26 26 28 34 39 43 46 46 46 46 45 45 45 41
10 3 5 5 8 3 12 10 8 11 10 6 3 3 21 21 20 8 18 29 17 12 12 14 19 20 20 21 22 25 28 27 30 31 34 38 43 40 40 42 45 46 45 50
8 12 1 4 2 4 8 6 6 8 8 12 6 11 11 8 23 40 25 23 14 19 21 23 21 20 20 22 23 25 29 30 29 29 34 34 37 36 36 41 42 50 51 50
8 10 5 2 1 6 4 7 2 1 3 6 8 14 19 8 10 14 14 11 14 18 21 23 24 25 24 22 21 25 24 24 26 29 33 36 42 44 42 34 35 41 47 52
3 11 3 5 4 7 4 7 5 4 11 11 9 11 10 8 10 13 15 28 26 25 28 30 29 30 31 31 29 25 27 27 27 29 32 37 44 43 46 43 41 38 40 43
6 5 8 3 8 12 3 2 7 6 4 4 8 15 11 10 10 14 18 32 33 35 33 31 33 33 36 39 38 36 34 32 30 31 32 35 39 40 40 45 51 43 34 32
6 6 9 10 2 3 3 8 9 7 6 3 1 16 7 12 12 17 32 41 42 51 47 43 42 39 39 42 42 42 40 38 34 32 35 36 39 41 40 46 51 53 37 33
11 2 9 8 5 4 6 7 6 7 3 14 8 14 3 9 14 31 39 61 56 45 42 45 50 54 56 53 51 47 43 42 38 36 35 35 36 38 37 41 49 51 48 34
15 5 15 15 14 3 10 10 12 10 6 8 23 31 50 33 21 40 49 61 63 57 47 41 37 36 37 41 46 52 48 42 40 39 36 36 35 35 36 39 44 41 47 49
7 11 12 27 28 26 40 40 29 29 31 15 4 16 33 37 32 47 57 60 57 58 53 45 40 36 36 37 38 44 53 43 41 39 36 35 35 33 34 34 33 34 41 41
7 8 3 17 25 24 24 39 32 40 39 48 47 54 48 66 45 38 50 41 55 62 50 46 44 38 34 34 36 31 35 40 42 42 38 34 33 31 31 30 27 28 29 32
13 5 3 9 5 15 17 14 14 12 16 14 17 26 11 16 14 27 45 50 47 55 47 46 46 47 43 36 32 35 34 37 41 40 37 33 32 30 29 27 26 25 24 25
12 9 4 9 9 4 8 7 12 21 15 34 21 16 24 29 44 42 52 39 46 50 49 50 53 55 51 46 41 34 37 39 38 39 36 33 31 29 27 25 22 22 19 19
12 9 5 7 6 16 18 2 7 9 12 29 28 24 35 34 17 27 47 29 59 63 62 55 46 54 54 48 44 40 40 41 41 38 35 33 31 28 26 23 20 17 16 12
9 5 7 3 8 12 6 3 1 3 11 8 22 12 14 8 20 20 51 60 62 62 72 52 49 55 50 45 47 46 45 46 46 38 32 33 33 30 26 22 17 14 12 10
6 3 25 24 12 13 24 11 4 1 8 5 12 15 20 9 24 61 78 84 86 88 78 66 64 56 51 48 48 52 50 53 45 36 37 37 34 33 29 25 21 16 12 8
12 13 10 8 9 16 15 1 9 8 23 43 50 46 44 62 71 79 92 95 91 87 83 68 64 66 49 48 46 48 56 57 46 45 43 42 38 36 34 30 25 22 18 14
8 14 7 18 16 15 15 28 56 62 52 41 46 64 66 69 76 87 88 93 90 88 84 78 72 58 65 64 57 52 52 56 53 54 53 44 43 41 39 36 32 28 24 19
12 19 8 9 11 43 52 65 79 62 47 63 71 71 71 78 80 81 83 85 87 82 83 82 81 86 81 69 65 62 58 46 52 58 60 52 49 46 44 41 38 35 30 25
5 5 13 21 29 56 56 61 37 66 74 88 100 88 76 72 80 72 83 90 88 88 85 84 85 83 80 72 68 65 61 62 57 62 64 61 56 52 48 45 41 37 32 27
46 34 19 37 59 56 57 69 71 80 78 75 75 87 92 82 79 74 80 83 82 84 82 84 83 85 83 77 68 65 63 58 57 62 67 70 65 59 54 50 47 43 38 33
Wind_Direction_500mb
18 19 230 223 201 224 254 255 268 280 288 295 278 286 289 286 268 247 246 253 262 264 261 258 245 246 251 260 272 282 291 295 297 300 300 296 291 285 279 277 270 263 257 250
12 249 225 276 251 251 256 280 285 289 302 304 304 299 294 298 273 240 240 246 257 262 260 255 250 249 250 259 271 283 289 294 302 305 304 304 304 295 279 271 271 266 258 252
188 276 9 304 303 293 257 246 277 283 328 264 328 287 320 310 322 296 249 251 254 250 245 239 245 248 255 260 272 280 290 295 304 308 311 312 314 310 307 285 272 268 260 252
227 279 255 291 266 210 286 206 263 300 341 324 25 294 314 324 327 334 304 269 252 237 228 233 238 244 254 266 268 278 291 303 307 317 314 318 311 304 305 301 294 281 262 253
279 348 10 282 233 186 253 308 291 292 242 298 339 297 276 336 336 353 342 335 292 261 242 230 230 241 255 266 272 283 295 308 307 317 316 322 319 307 296 295 293 289 274 250
259 297 231 235 280 218 298 307 40 71 330 343 295 46 287 303 306 319 335 356 340 169 204 233 252 263 272 278 281 284 289 300 305 316 322 322 316 313 301 291 297 290 280 262
327 256 276 251 316 13 0 359 343 358 8 266 349 274 252 278 279 266 303 311 320 291 278 271 274 280 287 287 286 286 292 300 308 316 325 329 329 308 296 293 291 291 285 272
38 334 102 338 88 319 9 35 106 301 330 300 331 237 262 240 292 296 297 283 274 257 261 268 273 281 290 291 290 292 297 302 307 314 326 327 345 341 319 302 295 280 284 282
18 278 307 160 308 99 8 41 165 258 234 290 268 283 288 302 330 342 333 306 268 252 257 264 272 279 285 288 289 291 299 308 315 322 325 331 337 344 350 334 303 300 290 275
188 303 215 285 126 41 140 150 36 30 347 306 291 282 248 327 340 343 333 314 300 291 284 278 280 281 276 276 279 283 295 307 318 326 328 335 340 338 343 339 334 305 299 285
129 129 286 310 190 170 125 140 74 127 171 225 307 276 217 250 301 311 301 316 313 306 298 292 282 282 277 275 276 279 284 294 306 317 325 329 334 343 344 341 348 330 309 295
195 160 276 256 358 44 148 184 161 133 241 219 169 272 243 249 268 277 295 314 313 313 305 300 294 287 281 279 278 279 280 285 293 304 315 321 326 332 339 345 348 353 329 311
175 223 324 348 48 10 243 206 139 102 70 201 166 259 233 274 292 301 300 314 318 320 314 299 285 280 283 278 274 272 275 279 285 292 299 306 316 326 333 343 352 360 0 339
170 194 196 227 245 139 242 213 201 162 166 205 229 276 278 295 301 312 316 319 325 322 323 321 315 301 299 295 279 263 265 273 278 283 291 301 309 318 327 335 342 351 356 359
175 237 207 253 267 268 267 267 237 215 221 214 274 236 275 293 300 303 306 318 326 333 333 335 325 312 296 303 298 279 255 267 277 278 284 293 302 311 318 325 333 342 356 3
173 262 145 277 251 257 265 255 239 234 237 244 259 276 279 278 288 287 301 320 333 336 333 338 341 335 319 303 301 290 261 267 273 275 280 284 291 299 304 312 318 327 344 357
173 216 293 260 339 306 281 245 177 185 200 201 200 225 274 288 278 300 319 322 333 336 335 336 339 337 330 321 301 282 272 266 268 273 277 279 282 288 292 300 311 314 324 342
168 157 188 283 343 232 260 264 204 206 218 212 252 258 265 265 298 308 330 301 335 331 326 324 317 317 317 319 314 288 273 267 267 270 272 273 275 278 282 290 299 311 314 324
173 153 253 260 232 311 297 161 154 184 274 213 225 251 269 299 306 309 330 314 323 327 320 319 334 329 310 306 313 299 274 267 264 266 266 267 267 269 273 276 284 293 310 324
114 174 180 170 233 240 252 90 194 199 293 175 183 226 266 298 313 313 315 318 319 321 332 316 319 323 323 318 304 301 287 269 265 266 262 258 261 261 263 267 265 273 286 311
123 208 218 231 257 283 264 279 202 149 257 119 202 284 265 221 276 303 315 314 313 313 316 309 303 315 313 308 302 295 289 274 273 262 256 253 252 255 257 256 255 252 255 266
197 180 206 210 236 277 247 161 197 248 309 331 326 326 312 311 312 313 315 311 312 311 308 303 300 305 306 304 300 296 289 285 271 256 252 252 247 246 250 250 245 242 240 245
226 206 221 202 213 262 245 265 281 287 300 310 319 315 315 314 309 308 308 308 307 306 306 307 304 302 301 299 289 284 289 288 273 256 251 248 246 241 241 243 242 235 234 235
232 237 238 266 229 250 275 301 297 305 315 315 313 310 310 306 306 303 303 303 301 300 300 305 300 299 298 293 288 280 273 285 272 258 251 246 240 240 238 237 236 235 232 233
240 163 249 261 272 283 285 285 301 304 303 307 306 308 306 306 303 302 302 301 300 300 301 301 298 296 295 294 288 284 273 261 271 258 249 242 239 235 235 236 237 237 236 234
247 245 253 272 281 283 292 294 299 302 300 300 305 307 304 305 301 302 299 300 299 297 297 299 298 296 296 297 292 285 276 261 262 258 246 240 235 233 229 229 229 229 228 230
Wind_Speed_850mb
14 6 8 11 10 6 7 11 30 32 28 16 24 47 55 64 54 47 55 57 64 60 44 34 30 33 34 33 35 39 43 41 42 44 46 47 49 53 58 59 55 57 57 60
8 7 5 3 6 9 10 18 24 20 5 14 31 53 45 29 25 45 53 45 59 56 46 34 33 35 33 33 33 35 36 36 36 40 42 48 53 54 57 60 61 56 56 56
7 5 7 5 7 10 9 13 10 16 21 10 29 19 13 11 15 17 42 57 53 47 38 39 39 33 31 31 29 28 28 29 35 38 42 44 49 53 51 46 56 60 61 59
9 6 3 3 9 6 9 8 11 16 20 12 15 13 14 15 25 8 23 26 46 46 46 41 38 34 30 26 26 26 28 32 32 37 42 46 48 53 50 46 46 52 57 59
6 2 3 5 7 7 17 10 17 7 5 7 5 5 18 10 15 18 15 22 18 21 27 28 26 24 25 24 25 27 27 27 29 37 42 47 48 49 51 47 48 42 39 43
11 7 4 7 7 7 16 12 6 4 2 1 5 2 13 8 8 15 10 28 14 4 9 11 16 20 21 23 25 26 26 26 28 34 39 43 46 46 46 46 45 45 45 41
10 3 5 5 8 3 12 10 8 11 10 6 3 3 21 21 20 8 18 29 17 12 12 14 19 20 20 21 22 25 28 27 30 31 34 38 43 40 40 42 45 46 45 50
8 12 1 4 2 4 8 6 6 8 8 12 6 11 11 8 23 40 25 23 14 19 21 23 21 20 20 22 23 25 29 30 29 29 34 34 37 36 36 41 42 50 51 50
8 10 5 2 1 6 4 7 2 1 3 6 8 14 19 8 10 14 14 11 14 18 21 23 24 25 24 22 21 25 24 24 26 29 33 36 42 44 42 34 35 41 47 52
3 11 3 5 4 7 4 7 5 4 11 11 9 11 10 8 10 13 15 28 26 25 28 30 29 30 31 31 29 25 27 27 27 29 32 37 44 43 46 43 41 38 40 43
6 5 8 3 8 12 3 2 7 6 4 4 8 15 11 10 10 14 18 32 33 35 33 31 33 33 36 39 38 36 34 32 30 31 32 35 39 40 40 45 51 43 34 32
6 6 9 10 2 3 3 8 9 7 6 3 1 16 7 12 12 17 32 41 42 51 47 43 42 39 39 42 42 42 40 38 34 32 35 36 39 41 40 46 51 53 37 33
11 2 9 8 5 4 6 7 6 7 3 14 8 14 3 9 14 31 39 61 56 45 42 45 50 54 56 53 51 47 43 42 38 36 35 35 36 38 37 41 49 51 48 34
15 5 15 15 14 3 10 10 12 10 6 8 23 31 50 33 21 40 49 61 63 57 47 41 37 36 37 41 46 52 48 42 40 39 36 36 35 35 36 39 44 41 47 49
7 11 12 27 28 26 40 40 29 29 31 15 4 16 33 37 32 47 57 60 57 58 53 45 40 36 36 37 38 44 53 43 41 39 36 35 35 33 34 34 33 34 41 41
7 8 3 17 25 24 24 39 32 40 39 48 47 54 48 66 45 38 50 41 55 62 50 46 44 38 34 34 36 31 35 40 42 42 38 34 33 31 31 30 27 28 29 32
13 5 3 9 5 15 17 14 14 12 16 14 17 26 11 16 14 27 45 50 47 55 47 46 46 47 43 36 32 35 34 37 41 40 37 33 32 30 29 27 26 25 24 25
12 9 4 9 9 4 8 7 12 21 15 34 21 16 24 29 44 42 52 39 46 50 49 50 53 55 51 46 41 34 37 39 38 39 36 33 31 29 27 25 22 22 19 19
12 9 5 7 6 16 18 2 7 9 12 29 28 24 35 34 17 27 47 29 59 63 62 55 46 54 54 48 44 40 40 41 41 38 35 33 31 28 26 23 20 17 16 12
9 5 7 3 8 12 6 3 1 3 11 8 22 12 14 8 20 20 51 60 62 62 72 52 49 55 50 45 47 46 45 46 46 38 32 33 33 30 26 22 17 14 12 10
6 3 25 24 12 13 24 11 4 1 8 5 12 15 20 9 24 61 78 84 86 88 78 66 64 56 51 48 48 52 50 53 45 36 37 37 34 33 29 25 21 16 12 8
12 13 10 8 9 16 15 1 9 8 23 43 50 46 44 62 71 79 92 95 91 87 83 68 64 66 49 48 46 48 56 57 46 45 43 42 38 36 34 30 25 22 18 14
8 14 7 18 16 15 15 28 56 62 52 41 46 64 66 69 76 87 88 93 90 88 84 78 72 58 65 64 57 52 52 56 53 54 53 44 43 41 39 36 32 28 24 19
12 19 8 9 11 43 52 65 79 62 47 63 71 71 71 78 80 81 83 85 87 82 83 82 81 86 81 69 65 62 58 46 52 58 60 52 49 46 44 41 38 35 30 25
5 5 13 21 29 56 56 61 37 66 74 88 100 88 76 72 80 72 83 90 88 88 85 84 85 83 80 72 68 65 61 62 57 62 64 61 56 52 48 45 41 37 32 27
46 34 19 37 59 56 57 69 71 80 78 75 75 87 92 82 79 74 80 83 82 84 82 84 83 85 83 77 68 65 63 58 57 62 67 70 65 59 54 50 47 43 38 33
Wind_Direction_850mb
18 19 230 223 201 224 254 255 268 280 288 295 278 286 289 286 268 247 246 253 262 264 261 258 245 246 251 260 272 282 291 295 297 300 300 296 291 285 279 277 270 263 257 250
12 249 225 276 251 251 256 280 285 289 302 304 304 299 294 298 273 240 240 246 257 262 260 255 250 249 250 259 271 283 289 294 302 305 304 304 304 295 279 271 271 266 258 252
188 276 9 304 303 293 257 246 277 283 328 264 328 287 320 310 322 296 249 251 254 250 245 239 245 248 255 260 272 280 290 295 304 308 311 312 314 310 307 285 272 268 260 252
227 279 255 291 266 210 286 206 263 300 341 324 25 294 314 324 327 334 304 269 252 237 228 233 238 244 254 266 268 278 291 303 307 317 314 318 311 304 305 301 294 281 262 253
279 348 10 282 233 186 253 308 291 292 242 298 339 297 276 336 336 353 342 335 292 261 242 230 230 241 255 266 272 283 295 308 307 317 316 322 319 307 296 295 293 289 274 250
259 297 231 235 280 218 298 307 40 71 330 343 295 46 287 303 306 319 335 356 340 169 204 233 252 263 272 278 281 284 289 300 305 316 322 322 316 313 301 291 297 290 280 262
327 256 276 251 316 13 0 359 343 358 8 266 349 274 252 278 279 266 303 311 320 291 278 271 274 280 287 287 286 286 292 300 308 316 325 329 329 308 296 293 291 291 285 272
38 334 102 338 88 319 9 35 106 301 330 300 331 237 262 240 292 296 297 283 274 257 261 268 273 281 290 291 290 292 297 302 307 314 326 327 345 341 319 302 295 280 284 282
18 278 307 160 308 99 8 41 165 258 234 290 268 283 288 302 330 342 333 306 268 252 257 264 272 279 285 288 289 291 299 308 315 322 325 331 337 344 350 334 303 300 290 275
188 303 215 285 126 41 140 150 36 30 347 306 291 282 248 327 340 343 333 314 300 291 284 278 280 281 276 276 279 283 295 307 318 326 328 335 340 338 343 339 334 305 299 285
129 129 286 310 190 170 125 140 74 127 171 225 307 276 217 250 301 311 301 316 313 306 298 292 282 282 277 275 276 279 284 294 306 317 325 329 334 343 344 341 348 330 309 295
195 160 276 256 358 44 148 184 161 133 241 219 169 272 243 249 268 277 295 314 313 313 305 300 294 287 281 279 278 279 280 285 293 304 315 321 326 332 339 345 348 353 329 311
175 223 324 348 48 10 243 206 139 102 70 201 166 259 233 274 292 301 300 314 318 320 314 299 285 280 283 278 274 272 275 279 285 292 299 306 316 326 333 343 352 360 0 339
170 194 196 227 245 139 242 213 201 162 166 205 229 276 278 295 301 312 316 319 325 322 323 321 315 301 299 295 279 263 265 273 278 283 291 301 309 318 327 335 342 351 356 359
175 237 207 253 267 268 267 267 237 215 221 214 274 236 275 293 300 303 306 318 326 333 333 335 325 312 296 303 298 279 255 267 277 278 284 293 302 311 318 325 333 342 356 3
173 262 145 277 251 257 265 255 239 234 237 244 259 276 279 278 288 287 301 320 333 336 333 338 341 335 319 303 301 290 261 267 273 275 280 284 291 299 304 312 318 327 344 357
173 216 293 260 339 306 281 245 177 185 200 201 200 225 274 288 278 300 319 322 333 336 335 336 339 337 330 321 301 282 272 266 268 273 277 279 282 288 292 300 311 314 324 342
168 157 188 283 343 232 260 264 204 206 218 212 252 258 265 265 298 308 330 301 335 331 326 324 317 317 317 319 314 288 273 267 267 270 272 273 275 278 282 290 299 311 314 324
173 153 253 260 232 311 297 161 154 184 274 213 225 251 269 299 306 309 330 314 323 327 320 319 334 329 310 306 313 299 274 267 264 266 266 267 267 269 273 276 284 293 310 324
114 174 180 170 233 240 252 90 194 199 293 175 183 226 266 298 313 313 315 318 319 321 332 316 319 323 323 318 304 301 287 269 265 266 262 258 261 261 263 267 265 273 286 311
123 208 218 231 257 283 264 279 202 149 257 119 202 284 265 221 276 303 315 314 313 313 316 309 303 315 313 308 302 295 289 274 273 262 256 253 252 255 257 256 255 252 255 266
197 180 206 210 236 277 247 161 197 248 309 331 326 326 312 311 312 313 315 311 312 311 308 303 300 305 306 304 300 296 289 285 271 256 252 252 247 246 250 250 245 242 240 245
226 206 221 202 213 262 245 265 281 287 300 310 319 315 315 314 309 308 308 308 307 306 306 307 304 302 301 299 289 284 289 288 273 256 251 248 246 241 241 243 242 235 234 235
232 237 238 266 229 250 275 301 297 305 315 315 313 310 310 306 306 303 303 303 301 300 300 305 300 299 298 293 288 280 273 285 272 258 251 246 240 240 238 237 236 235 232 233
240 163 249 261 272 283 285 285 301 304 303 307 306 308 306 306 303 302 302 301 300 300 301 301 298 296 295 294 288 284 273 261 271 258 249 242 239 235 235 236 237 237 236 234
247 245 253 272 281 283 292 294 299 302 300 300 305 307 304 305 301 302 299 300 299 297 297 299 298 296 296 297 292 285 276 261 262 258 246 240 235 233 229 229 229 229 228 230